contact:dominique.lefevre@mio.osupytheas.fr, maurice.libes@osupytheas.fr, didier.mallarino@osupytheas.fr
Project:EMSO http://www.emso-fr.org/EMSO-France
Depth: 2436.0 m
Title:EMSO Ligure Ouest : Data MII capteur MICROCAT
DateTime_Computer,Latitude,Longitude,Temperature,Conductivity,Pressure,DateTime_Instrument
DateTime_Computer,Latitude,Longitude,degC,S m-1,dbar,DateTime_Instrument
2019-09-19T00:00:33Z,42.805,6.029,13.2958,4.59955,2469.867,2019-9-19T02:00:56Z
2019-09-19T00:03:36Z,42.805,6.029,13.2952,4.59954,2469.876,2019-9-19T02:03:59Z
2019-09-19T00:06:39Z,42.805,6.029,13.2957,4.59955,2469.867,2019-9-19T02:07:02Z
2019-09-19T00:09:42Z,42.805,6.029,13.2957,4.59968,2469.853,2019-9-19T02:10:06Z
2019-09-19T00:12:45Z,42.805,6.029,13.2958,4.59954,2469.89,2019-9-19T02:13:09Z
2019-09-19T00:15:49Z,42.805,6.029,13.2956,4.59954,2469.853,2019-9-19T02:16:12Z
2019-09-19T00:18:52Z,42.805,6.029,13.2958,4.59955,2469.89,2019-9-19T02:19:15Z
2019-09-19T00:21:55Z,42.805,6.029,13.2956,4.59955,2469.853,2019-9-19T02:22:18Z
2019-09-19T00:24:58Z,42.805,6.029,13.2955,4.59956,2469.821,2019-9-19T02:25:22Z
2019-09-19T00:28:02Z,42.805,6.029,13.2958,4.59953,2469.853,2019-9-19T02:28:25Z
2019-09-19T00:31:05Z,42.805,6.029,13.2956,4.59956,2469.821,2019-9-19T02:31:28Z
2019-09-19T00:34:08Z,42.805,6.029,13.2955,4.59954,2469.844,2019-9-19T02:34:31Z
2019-09-19T00:37:11Z,42.805,6.029,13.2957,4.59956,2469.853,2019-9-19T02:37:35Z
2019-09-19T00:40:15Z,42.805,6.029,13.2957,4.59954,2469.853,2019-9-19T02:40:38Z
2019-09-19T00:43:18Z,42.805,6.029,13.2957,4.59960,2469.844,2019-9-19T02:43:41Z
2019-09-19T00:46:21Z,42.805,6.029,13.2956,4.59954,2469.806,2019-9-19T02:46:44Z
2019-09-19T00:49:24Z,42.805,6.029,13.2954,4.59954,2469.806,2019-9-19T02:49:48Z
2019-09-19T00:52:28Z,42.805,6.029,13.2953,4.59953,2469.806,2019-9-19T02:52:51Z
2019-09-19T00:55:31Z,42.805,6.029,13.2955,4.59955,2469.867,2019-9-19T02:55:54Z
2019-09-19T00:58:34Z,42.805,6.029,13.2957,4.59954,2469.806,2019-9-19T02:58:57Z
2019-09-19T01:01:37Z,42.805,6.029,13.2952,4.59956,2469.806,2019-9-19T03:02:01Z
2019-09-19T01:04:41Z,42.805,6.029,13.2958,4.59956,2469.806,2019-9-19T03:05:04Z
2019-09-19T01:07:44Z,42.805,6.029,13.2956,4.59954,2469.821,2019-9-19T03:08:07Z
2019-09-19T01:10:47Z,42.805,6.029,13.2955,4.59954,2469.844,2019-9-19T03:11:10Z
2019-09-19T01:13:50Z,42.805,6.029,13.2957,4.59962,2469.806,2019-9-19T03:14:14Z
2019-09-19T01:16:54Z,42.805,6.029,13.2957,4.59967,2469.806,2019-9-19T03:17:17Z
2019-09-19T01:19:57Z,42.805,6.029,13.2958,4.59959,2469.844,2019-9-19T03:20:20Z
2019-09-19T01:23:00Z,42.805,6.029,13.2963,4.59955,2469.783,2019-9-19T03:23:23Z
2019-09-19T01:26:03Z,42.805,6.029,13.2959,4.59955,2469.806,2019-9-19T03:26:27Z
2019-09-19T01:29:06Z,42.805,6.029,13.2954,4.59961,2469.797,2019-9-19T03:29:30Z
2019-09-19T01:32:10Z,42.805,6.029,13.2953,4.59954,2469.844,2019-9-19T03:32:33Z
2019-09-19T01:35:13Z,42.805,6.029,13.2959,4.59955,2469.797,2019-9-19T03:35:36Z
2019-09-19T01:38:16Z,42.805,6.029,13.2960,4.59960,2469.821,2019-9-19T03:38:39Z
2019-09-19T01:41:19Z,42.805,6.029,13.2958,4.59954,2469.806,2019-9-19T03:41:42Z
2019-09-19T01:44:22Z,42.805,6.029,13.2957,4.59953,2469.821,2019-9-19T03:44:46Z
2019-09-19T01:47:26Z,42.805,6.029,13.2955,4.59953,2469.821,2019-9-19T03:47:49Z
2019-09-19T01:50:29Z,42.805,6.029,13.2955,4.59953,2469.806,2019-9-19T03:50:52Z
2019-09-19T01:53:32Z,42.805,6.029,13.2953,4.59955,2469.783,2019-9-19T03:53:55Z
2019-09-19T01:56:35Z,42.805,6.029,13.2957,4.59955,2469.797,2019-9-19T03:56:59Z
2019-09-19T01:59:38Z,42.805,6.029,13.2960,4.59954,2469.783,2019-9-19T04:00:02Z
2019-09-19T02:02:42Z,42.805,6.029,13.2954,4.59954,2469.783,2019-9-19T04:03:05Z
2019-09-19T02:05:45Z,42.805,6.029,13.2956,4.59954,2469.797,2019-9-19T04:06:08Z
2019-09-19T02:08:48Z,42.805,6.029,13.2958,4.59955,2469.783,2019-9-19T04:09:11Z
2019-09-19T02:11:51Z,42.805,6.029,13.2960,4.59954,2469.806,2019-9-19T04:12:15Z
2019-09-19T02:14:54Z,42.805,6.029,13.2958,4.59956,2469.76,2019-9-19T04:15:18Z
2019-09-19T02:17:58Z,42.805,6.029,13.2957,4.59958,2469.797,2019-9-19T04:18:21Z
2019-09-19T02:21:01Z,42.805,6.029,13.2957,4.59954,2469.797,2019-9-19T04:21:24Z
2019-09-19T02:24:04Z,42.805,6.029,13.2955,4.59953,2469.783,2019-9-19T04:24:27Z
2019-09-19T02:27:07Z,42.805,6.029,13.2957,4.59956,2469.783,2019-9-19T04:27:31Z
2019-09-19T02:30:11Z,42.805,6.029,13.2959,4.59954,2469.737,2019-9-19T04:30:34Z
2019-09-19T02:33:14Z,42.805,6.029,13.2957,4.59953,2469.76,2019-9-19T04:33:37Z
2019-09-19T02:36:17Z,42.805,6.029,13.2960,4.59953,2469.783,2019-9-19T04:36:40Z
2019-09-19T02:39:20Z,42.805,6.029,13.2954,4.59952,2469.783,2019-9-19T04:39:44Z
2019-09-19T02:42:24Z,42.805,6.029,13.2956,4.59954,2469.797,2019-9-19T04:42:47Z
2019-09-19T02:45:27Z,42.805,6.029,13.2961,4.59952,2469.773,2019-9-19T04:45:50Z
2019-09-19T02:48:30Z,42.805,6.029,13.2956,4.59954,2469.76,2019-9-19T04:48:53Z
2019-09-19T02:51:33Z,42.805,6.029,13.2958,4.59961,2469.797,2019-9-19T04:51:57Z
2019-09-19T02:54:36Z,42.805,6.029,13.2955,4.59955,2469.783,2019-9-19T04:55:00Z
2019-09-19T02:57:40Z,42.805,6.029,13.2957,4.59954,2469.797,2019-9-19T04:58:03Z
2019-09-19T03:00:43Z,42.805,6.029,13.2958,4.59954,2469.737,2019-9-19T05:01:06Z
2019-09-19T03:03:46Z,42.805,6.029,13.2958,4.59959,2469.76,2019-9-19T05:04:09Z
2019-09-19T03:06:49Z,42.805,6.029,13.2955,4.59954,2469.75,2019-9-19T05:07:13Z
2019-09-19T03:09:52Z,42.805,6.029,13.2958,4.59953,2469.76,2019-9-19T05:10:16Z
2019-09-19T03:12:56Z,42.805,6.029,13.2960,4.59952,2469.773,2019-9-19T05:13:19Z
2019-09-19T03:15:59Z,42.805,6.029,13.2957,4.59953,2469.75,2019-9-19T05:16:22Z
2019-09-19T03:19:02Z,42.805,6.029,13.2966,4.59955,2469.737,2019-9-19T05:19:25Z
2019-09-19T03:22:05Z,42.805,6.029,13.2961,4.59954,2469.76,2019-9-19T05:22:29Z
2019-09-19T03:25:08Z,42.805,6.029,13.2961,4.59956,2469.773,2019-9-19T05:25:32Z
2019-09-19T03:28:12Z,42.805,6.029,13.2958,4.59960,2469.773,2019-9-19T05:28:35Z
2019-09-19T03:31:15Z,42.805,6.029,13.2961,4.59964,2469.76,2019-9-19T05:31:38Z
2019-09-19T03:34:18Z,42.805,6.029,13.2958,4.59963,2469.75,2019-9-19T05:34:42Z
2019-09-19T03:37:21Z,42.805,6.029,13.2967,4.59953,2469.76,2019-9-19T05:37:45Z
2019-09-19T03:40:25Z,42.805,6.029,13.2955,4.59957,2469.797,2019-9-19T05:40:48Z
2019-09-19T03:43:28Z,42.805,6.029,13.2958,4.59956,2469.797,2019-9-19T05:43:51Z
2019-09-19T03:46:31Z,42.805,6.029,13.2955,4.59954,2469.76,2019-9-19T05:46:54Z
2019-09-19T03:49:34Z,42.805,6.029,13.2956,4.59957,2469.75,2019-9-19T05:49:58Z
2019-09-19T03:52:38Z,42.805,6.029,13.2959,4.59954,2469.713,2019-9-19T05:53:01Z
2019-09-19T03:55:41Z,42.805,6.029,13.2955,4.59964,2469.75,2019-9-19T05:56:04Z
2019-09-19T03:58:44Z,42.805,6.029,13.2960,4.59956,2469.773,2019-9-19T05:59:07Z
2019-09-19T04:01:47Z,42.805,6.029,13.2959,4.59956,2469.737,2019-9-19T06:02:10Z
2019-09-19T04:04:50Z,42.805,6.029,13.2955,4.59958,2469.727,2019-9-19T06:05:14Z
2019-09-19T04:07:53Z,42.805,6.029,13.2957,4.59954,2469.737,2019-9-19T06:08:17Z
2019-09-19T04:10:57Z,42.805,6.029,13.2964,4.59954,2469.737,2019-9-19T06:11:20Z
2019-09-19T04:14:00Z,42.805,6.029,13.2957,4.59956,2469.75,2019-9-19T06:14:23Z
2019-09-19T04:17:03Z,42.805,6.029,13.2955,4.59961,2469.75,2019-9-19T06:17:26Z
2019-09-19T04:20:06Z,42.805,6.029,13.2958,4.59955,2469.727,2019-9-19T06:20:30Z
2019-09-19T04:23:09Z,42.805,6.029,13.2959,4.59956,2469.76,2019-9-19T06:23:33Z
2019-09-19T04:26:13Z,42.805,6.029,13.2955,4.59957,2469.713,2019-9-19T06:26:36Z
2019-09-19T04:29:16Z,42.805,6.029,13.2955,4.59958,2469.76,2019-9-19T06:29:39Z
2019-09-19T04:32:19Z,42.805,6.029,13.2953,4.59953,2469.76,2019-9-19T06:32:42Z
2019-09-19T04:35:22Z,42.805,6.029,13.2953,4.59954,2469.737,2019-9-19T06:35:46Z
2019-09-19T04:38:26Z,42.805,6.029,13.2956,4.59954,2469.737,2019-9-19T06:38:49Z
2019-09-19T04:41:29Z,42.805,6.029,13.2957,4.59958,2469.783,2019-9-19T06:41:52Z
2019-09-19T04:44:32Z,42.805,6.029,13.2956,4.59954,2469.727,2019-9-19T06:44:56Z
2019-09-19T04:47:35Z,42.805,6.029,13.2957,4.59956,2469.713,2019-9-19T06:47:59Z
2019-09-19T04:50:39Z,42.805,6.029,13.2958,4.59956,2469.76,2019-9-19T06:51:02Z
2019-09-19T04:53:42Z,42.805,6.029,13.2958,4.59954,2469.76,2019-9-19T06:54:05Z
2019-09-19T04:56:45Z,42.805,6.029,13.2953,4.59953,2469.76,2019-9-19T06:57:09Z
2019-09-19T04:59:48Z,42.805,6.029,13.2954,4.59956,2469.76,2019-9-19T07:00:12Z
2019-09-19T05:02:52Z,42.805,6.029,13.2953,4.59958,2469.737,2019-9-19T07:03:15Z
2019-09-19T05:05:55Z,42.805,6.029,13.2956,4.59958,2469.76,2019-9-19T07:06:18Z
2019-09-19T05:08:58Z,42.805,6.029,13.2953,4.59956,2469.773,2019-9-19T07:09:21Z
2019-09-19T05:12:01Z,42.805,6.029,13.2958,4.59957,2469.783,2019-9-19T07:12:25Z
2019-09-19T05:15:04Z,42.805,6.029,13.2957,4.59956,2469.737,2019-9-19T07:15:28Z
2019-09-19T05:18:08Z,42.805,6.029,13.2957,4.59954,2469.75,2019-9-19T07:18:31Z
2019-09-19T05:21:11Z,42.805,6.029,13.2959,4.59954,2469.773,2019-9-19T07:21:34Z
2019-09-19T05:24:14Z,42.805,6.029,13.2957,4.59955,2469.76,2019-9-19T07:24:37Z
2019-09-19T05:27:17Z,42.805,6.029,13.2958,4.59956,2469.773,2019-9-19T07:27:41Z
2019-09-19T05:30:20Z,42.805,6.029,13.2958,4.59956,2469.737,2019-9-19T07:30:44Z
2019-09-19T05:33:24Z,42.805,6.029,13.2952,4.59954,2469.723,2019-9-19T07:33:47Z
2019-09-19T05:36:27Z,42.805,6.029,13.2955,4.59955,2469.797,2019-9-19T07:36:50Z
2019-09-19T05:39:30Z,42.805,6.029,13.2956,4.59956,2469.773,2019-9-19T07:39:53Z
2019-09-19T05:42:33Z,42.805,6.029,13.2955,4.59959,2469.737,2019-9-19T07:42:57Z
2019-09-19T05:45:36Z,42.805,6.029,13.2956,4.59958,2469.76,2019-9-19T07:46:00Z
2019-09-19T05:48:40Z,42.805,6.029,13.2956,4.59954,2469.797,2019-9-19T07:49:03Z
2019-09-19T05:51:43Z,42.805,6.029,13.2959,4.59961,2469.783,2019-9-19T07:52:06Z
2019-09-19T05:54:46Z,42.805,6.029,13.2957,4.59957,2469.797,2019-9-19T07:55:09Z
2019-09-19T05:57:49Z,42.805,6.029,13.2958,4.59960,2469.76,2019-9-19T07:58:13Z
2019-09-19T06:00:52Z,42.805,6.029,13.2957,4.59956,2469.76,2019-9-19T08:01:16Z
2019-09-19T06:03:55Z,42.805,6.029,13.2958,4.59958,2469.773,2019-9-19T08:04:19Z
2019-09-19T06:06:59Z,42.805,6.029,13.2957,4.59957,2469.783,2019-9-19T08:07:22Z
2019-09-19T06:10:02Z,42.805,6.029,13.2957,4.59961,2469.783,2019-9-19T08:10:25Z
2019-09-19T06:13:05Z,42.805,6.029,13.2958,4.59957,2469.806,2019-9-19T08:13:28Z
2019-09-19T06:16:08Z,42.805,6.029,13.2957,4.59958,2469.797,2019-9-19T08:16:32Z
2019-09-19T06:19:12Z,42.805,6.029,13.2953,4.59957,2469.76,2019-9-19T08:19:35Z
2019-09-19T06:22:15Z,42.805,6.029,13.2955,4.59961,2469.797,2019-9-19T08:22:38Z
2019-09-19T06:25:18Z,42.805,6.029,13.2957,4.59956,2469.783,2019-9-19T08:25:42Z
2019-09-19T06:28:22Z,42.805,6.029,13.2960,4.59958,2469.783,2019-9-19T08:28:45Z
2019-09-19T06:31:25Z,42.805,6.029,13.2955,4.59957,2469.844,2019-9-19T08:31:48Z
2019-09-19T06:34:28Z,42.805,6.029,13.2957,4.59957,2469.783,2019-9-19T08:34:51Z
2019-09-19T06:37:31Z,42.805,6.029,13.2957,4.59957,2469.783,2019-9-19T08:37:55Z
2019-09-19T06:40:34Z,42.805,6.029,13.2956,4.59957,2469.821,2019-9-19T08:40:58Z
2019-09-19T06:43:38Z,42.805,6.029,13.2958,4.59957,2469.797,2019-9-19T08:44:01Z
2019-09-19T06:46:41Z,42.805,6.029,13.2957,4.59958,2469.83,2019-9-19T08:47:04Z
2019-09-19T06:49:44Z,42.805,6.029,13.2955,4.59957,2469.821,2019-9-19T08:50:07Z
2019-09-19T06:52:47Z,42.805,6.029,13.2957,4.59956,2469.806,2019-9-19T08:53:11Z
2019-09-19T06:55:50Z,42.805,6.029,13.2955,4.59960,2469.806,2019-9-19T08:56:14Z
2019-09-19T06:58:54Z,42.805,6.029,13.2958,4.59958,2469.821,2019-9-19T08:59:17Z
2019-09-19T07:01:57Z,42.805,6.029,13.2958,4.59957,2469.806,2019-9-19T09:02:20Z
2019-09-19T07:05:00Z,42.805,6.029,13.2956,4.59959,2469.806,2019-9-19T09:05:23Z
2019-09-19T07:08:03Z,42.805,6.029,13.2955,4.59958,2469.867,2019-9-19T09:08:27Z
2019-09-19T07:11:06Z,42.805,6.029,13.2956,4.59961,2469.806,2019-9-19T09:11:30Z
2019-09-19T07:14:10Z,42.805,6.029,13.2958,4.59960,2469.867,2019-9-19T09:14:33Z
2019-09-19T07:17:13Z,42.805,6.029,13.2957,4.59958,2469.844,2019-9-19T09:17:36Z
2019-09-19T07:20:16Z,42.805,6.029,13.2958,4.59961,2469.867,2019-9-19T09:20:39Z
2019-09-19T07:23:19Z,42.805,6.029,13.2955,4.59960,2469.83,2019-9-19T09:23:43Z
2019-09-19T07:26:22Z,42.805,6.029,13.2958,4.59960,2469.853,2019-9-19T09:26:46Z
2019-09-19T07:29:26Z,42.805,6.029,13.2956,4.59958,2469.853,2019-9-19T09:29:49Z
2019-09-19T07:32:29Z,42.805,6.029,13.2954,4.59960,2469.876,2019-9-19T09:32:52Z
2019-09-19T07:35:32Z,42.805,6.029,13.2961,4.59958,2469.867,2019-9-19T09:35:56Z
2019-09-19T07:38:35Z,42.805,6.029,13.2957,4.59958,2469.867,2019-9-19T09:38:59Z
2019-09-19T07:41:39Z,42.805,6.029,13.2956,4.59957,2469.853,2019-9-19T09:42:02Z
2019-09-19T07:44:42Z,42.805,6.029,13.2957,4.59961,2469.89,2019-9-19T09:45:05Z
2019-09-19T07:47:45Z,42.805,6.029,13.2957,4.59958,2469.853,2019-9-19T09:48:08Z
2019-09-19T07:50:48Z,42.805,6.029,13.2957,4.59958,2469.844,2019-9-19T09:51:12Z
2019-09-19T07:53:51Z,42.805,6.029,13.2958,4.59960,2469.876,2019-9-19T09:54:15Z
2019-09-19T07:56:55Z,42.805,6.029,13.2957,4.59959,2469.9,2019-9-19T09:57:18Z
2019-09-19T07:59:58Z,42.805,6.029,13.2961,4.59960,2469.89,2019-9-19T10:00:21Z
2019-09-19T08:03:01Z,42.805,6.029,13.2958,4.59960,2469.876,2019-9-19T10:03:24Z
2019-09-19T08:06:04Z,42.805,6.029,13.2961,4.59959,2469.876,2019-9-19T10:06:28Z
2019-09-19T08:09:07Z,42.805,6.029,13.2956,4.59961,2469.867,2019-9-19T10:09:31Z
2019-09-19T08:12:11Z,42.805,6.029,13.2957,4.59960,2469.89,2019-9-19T10:12:34Z
2019-09-19T08:15:14Z,42.805,6.029,13.2960,4.59963,2469.876,2019-9-19T10:15:37Z
2019-09-19T08:18:17Z,42.805,6.029,13.2959,4.59962,2469.876,2019-9-19T10:18:41Z
2019-09-19T08:21:20Z,42.805,6.029,13.2962,4.59963,2469.9,2019-9-19T10:21:44Z
2019-09-19T08:24:24Z,42.805,6.029,13.2958,4.59961,2469.9,2019-9-19T10:24:47Z
2019-09-19T08:27:27Z,42.805,6.029,13.2961,4.59961,2469.89,2019-9-19T10:27:50Z
2019-09-19T08:30:30Z,42.805,6.029,13.2962,4.59965,2469.9,2019-9-19T10:30:53Z
2019-09-19T08:33:33Z,42.805,6.029,13.2963,4.59964,2469.876,2019-9-19T10:33:57Z
2019-09-19T08:36:37Z,42.805,6.029,13.2959,4.59961,2469.914,2019-9-19T10:37:00Z
2019-09-19T08:39:40Z,42.805,6.029,13.2959,4.59961,2469.876,2019-9-19T10:40:03Z
2019-09-19T08:42:43Z,42.805,6.029,13.2959,4.59962,2469.876,2019-9-19T10:43:06Z
2019-09-19T08:45:46Z,42.805,6.029,13.2958,4.59961,2469.96,2019-9-19T10:46:10Z
2019-09-19T08:48:49Z,42.805,6.029,13.2958,4.59962,2469.876,2019-9-19T10:49:13Z
2019-09-19T08:51:53Z,42.805,6.029,13.2963,4.59961,2469.923,2019-9-19T10:52:16Z
2019-09-19T08:54:56Z,42.805,6.029,13.2963,4.59965,2469.923,2019-9-19T10:55:19Z
2019-09-19T08:57:59Z,42.805,6.029,13.2961,4.59961,2469.9,2019-9-19T10:58:22Z
2019-09-19T09:01:02Z,42.805,6.029,13.2957,4.59960,2469.923,2019-9-19T11:01:26Z
2019-09-19T09:04:05Z,42.805,6.029,13.2962,4.59963,2469.876,2019-9-19T11:04:29Z
2019-09-19T09:07:09Z,42.805,6.029,13.2963,4.59964,2469.937,2019-9-19T11:07:32Z
2019-09-19T09:10:12Z,42.805,6.029,13.2962,4.59963,2469.96,2019-9-19T11:10:35Z
2019-09-19T09:13:15Z,42.805,6.029,13.2961,4.59964,2469.923,2019-9-19T11:13:38Z
2019-09-19T09:16:18Z,42.805,6.029,13.2962,4.59961,2469.914,2019-9-19T11:16:42Z
2019-09-19T09:19:21Z,42.805,6.029,13.2963,4.59966,2469.947,2019-9-19T11:19:45Z
2019-09-19T09:22:25Z,42.805,6.029,13.2961,4.59963,2469.933,2019-9-19T11:22:48Z
2019-09-19T09:25:28Z,42.805,6.029,13.2961,4.59963,2469.923,2019-9-19T11:25:51Z
2019-09-19T09:28:31Z,42.805,6.029,13.2964,4.59965,2469.923,2019-9-19T11:28:55Z
2019-09-19T09:31:34Z,42.805,6.029,13.2961,4.59964,2469.914,2019-9-19T11:31:58Z
2019-09-19T09:34:38Z,42.805,6.029,13.2961,4.59961,2469.89,2019-9-19T11:35:01Z
2019-09-19T09:37:41Z,42.805,6.029,13.2962,4.59964,2469.923,2019-9-19T11:38:04Z
2019-09-19T09:40:44Z,42.805,6.029,13.2963,4.59964,2469.96,2019-9-19T11:41:07Z
2019-09-19T09:43:47Z,42.805,6.029,13.2961,4.59962,2469.96,2019-9-19T11:44:11Z
2019-09-19T09:46:50Z,42.805,6.029,13.2964,4.59961,2469.9,2019-9-19T11:47:14Z
2019-09-19T09:49:54Z,42.805,6.029,13.2963,4.59964,2469.923,2019-9-19T11:50:17Z
2019-09-19T09:52:57Z,42.805,6.029,13.2964,4.59963,2469.937,2019-9-19T11:53:20Z
2019-09-19T09:56:00Z,42.805,6.029,13.2961,4.59963,2469.923,2019-9-19T11:56:23Z
2019-09-19T09:59:03Z,42.805,6.029,13.2965,4.59962,2469.937,2019-9-19T11:59:27Z
2019-09-19T10:02:07Z,42.805,6.029,13.2964,4.59963,2469.96,2019-9-19T12:02:30Z
2019-09-19T10:05:10Z,42.805,6.029,13.2961,4.59962,2469.947,2019-9-19T12:05:33Z
2019-09-19T10:08:13Z,42.805,6.029,13.2960,4.59961,2469.909,2019-9-19T12:08:36Z
2019-09-19T10:11:16Z,42.805,6.029,13.2957,4.59959,2469.886,2019-9-19T12:11:40Z
2019-09-19T10:14:19Z,42.805,6.029,13.2964,4.59964,2469.923,2019-9-19T12:14:43Z
2019-09-19T10:17:23Z,42.805,6.029,13.2961,4.59962,2469.89,2019-9-19T12:17:46Z
2019-09-19T10:20:26Z,42.805,6.029,13.2963,4.59960,2469.923,2019-9-19T12:20:49Z
2019-09-19T10:23:29Z,42.805,6.029,13.2961,4.59963,2469.9,2019-9-19T12:23:52Z
2019-09-19T10:26:32Z,42.805,6.029,13.2964,4.59962,2469.937,2019-9-19T12:26:56Z
2019-09-19T10:29:35Z,42.805,6.029,13.2963,4.59961,2469.923,2019-9-19T12:29:59Z
2019-09-19T10:32:39Z,42.805,6.029,13.2961,4.59961,2469.937,2019-9-19T12:33:02Z
2019-09-19T10:35:42Z,42.805,6.029,13.2961,4.59961,2469.9,2019-9-19T12:36:05Z
2019-09-19T10:38:45Z,42.805,6.029,13.2958,4.59964,2469.923,2019-9-19T12:39:08Z
2019-09-19T10:41:48Z,42.805,6.029,13.2961,4.59967,2469.937,2019-9-19T12:42:12Z
2019-09-19T10:44:51Z,42.805,6.029,13.2963,4.59963,2469.947,2019-9-19T12:45:15Z
2019-09-19T10:47:55Z,42.805,6.029,13.2959,4.59961,2469.9,2019-9-19T12:48:18Z
2019-09-19T10:50:58Z,42.805,6.029,13.2960,4.59966,2469.9,2019-9-19T12:51:21Z
2019-09-19T10:54:01Z,42.805,6.029,13.2962,4.59965,2469.923,2019-9-19T12:54:25Z
2019-09-19T10:57:04Z,42.805,6.029,13.2963,4.59963,2469.923,2019-9-19T12:57:28Z
2019-09-19T11:00:08Z,42.805,6.029,13.2961,4.59962,2469.914,2019-9-19T13:00:31Z
2019-09-19T11:03:11Z,42.805,6.029,13.2964,4.59966,2469.937,2019-9-19T13:03:34Z
2019-09-19T11:06:14Z,42.805,6.029,13.2962,4.59964,2469.9,2019-9-19T13:06:37Z
2019-09-19T11:09:17Z,42.805,6.029,13.2958,4.59963,2469.937,2019-9-19T13:09:41Z
2019-09-19T11:12:20Z,42.805,6.029,13.2962,4.59964,2469.914,2019-9-19T13:12:44Z
2019-09-19T11:15:24Z,42.805,6.029,13.2960,4.59962,2469.876,2019-9-19T13:15:47Z
2019-09-19T11:18:27Z,42.805,6.029,13.2959,4.59964,2469.89,2019-9-19T13:18:50Z
2019-09-19T11:21:30Z,42.805,6.029,13.2957,4.59962,2469.914,2019-9-19T13:21:54Z
2019-09-19T11:24:33Z,42.805,6.029,13.2958,4.59963,2469.923,2019-9-19T13:24:57Z
2019-09-19T11:27:37Z,42.805,6.029,13.2961,4.59963,2469.914,2019-9-19T13:28:00Z
2019-09-19T11:30:40Z,42.805,6.029,13.2966,4.59966,2469.937,2019-9-19T13:31:03Z
2019-09-19T11:33:43Z,42.805,6.029,13.2959,4.59966,2469.937,2019-9-19T13:34:07Z
2019-09-19T11:36:46Z,42.805,6.029,13.2962,4.59966,2469.867,2019-9-19T13:37:10Z
2019-09-19T11:39:50Z,42.805,6.029,13.2961,4.59964,2469.9,2019-9-19T13:40:13Z
2019-09-19T11:42:53Z,42.805,6.029,13.2962,4.59966,2469.9,2019-9-19T13:43:16Z
2019-09-19T11:45:56Z,42.805,6.029,13.2964,4.59965,2469.89,2019-9-19T13:46:19Z
2019-09-19T11:48:59Z,42.805,6.029,13.2961,4.59964,2469.9,2019-9-19T13:49:23Z
2019-09-19T11:52:03Z,42.805,6.029,13.2960,4.59962,2469.876,2019-9-19T13:52:26Z
2019-09-19T11:55:06Z,42.805,6.029,13.2964,4.59964,2469.876,2019-9-19T13:55:29Z
2019-09-19T11:58:09Z,42.805,6.029,13.2964,4.59967,2469.914,2019-9-19T13:58:33Z
2019-09-19T12:01:12Z,42.805,6.029,13.2967,4.59966,2469.876,2019-9-19T14:01:36Z
2019-09-19T12:04:16Z,42.805,6.029,13.2964,4.59966,2469.876,2019-9-19T14:04:39Z
2019-09-19T12:07:19Z,42.805,6.029,13.2960,4.59965,2469.863,2019-9-19T14:07:42Z
2019-09-19T12:10:22Z,42.805,6.029,13.2963,4.59964,2469.9,2019-9-19T14:10:45Z
2019-09-19T12:13:25Z,42.805,6.029,13.2961,4.59966,2469.867,2019-9-19T14:13:49Z
2019-09-19T12:16:28Z,42.805,6.029,13.2964,4.59966,2469.867,2019-9-19T14:16:52Z
2019-09-19T12:19:32Z,42.805,6.029,13.2964,4.59964,2469.876,2019-9-19T14:19:55Z
2019-09-19T12:22:35Z,42.805,6.029,13.2963,4.59966,2469.853,2019-9-19T14:22:58Z
2019-09-19T12:25:38Z,42.805,6.029,13.2959,4.59966,2469.9,2019-9-19T14:26:02Z
2019-09-19T12:28:42Z,42.805,6.029,13.2962,4.59965,2469.876,2019-9-19T14:29:05Z
2019-09-19T12:31:45Z,42.805,6.029,13.2962,4.59964,2469.867,2019-9-19T14:32:08Z
2019-09-19T12:34:48Z,42.805,6.029,13.2965,4.59963,2469.853,2019-9-19T14:35:11Z
2019-09-19T12:37:51Z,42.805,6.029,13.2963,4.59964,2469.876,2019-9-19T14:38:15Z
2019-09-19T12:40:54Z,42.805,6.029,13.2958,4.59963,2469.83,2019-9-19T14:41:18Z
2019-09-19T12:43:58Z,42.805,6.029,13.2964,4.59973,2469.89,2019-9-19T14:44:21Z
2019-09-19T12:47:01Z,42.805,6.029,13.2964,4.59965,2469.853,2019-9-19T14:47:24Z
2019-09-19T12:50:04Z,42.805,6.029,13.2965,4.59964,2469.876,2019-9-19T14:50:28Z
2019-09-19T12:53:07Z,42.805,6.029,13.2959,4.59966,2469.844,2019-9-19T14:53:31Z
2019-09-19T12:56:11Z,42.805,6.029,13.2964,4.59967,2469.853,2019-9-19T14:56:34Z
2019-09-19T12:59:14Z,42.805,6.029,13.2961,4.59972,2469.867,2019-9-19T14:59:37Z
2019-09-19T13:02:17Z,42.805,6.029,13.2960,4.59969,2469.853,2019-9-19T15:02:40Z
2019-09-19T13:05:20Z,42.805,6.029,13.2961,4.59964,2469.816,2019-9-19T15:05:44Z
2019-09-19T13:08:23Z,42.805,6.029,13.2965,4.59966,2469.844,2019-9-19T15:08:47Z
2019-09-19T13:11:27Z,42.805,6.029,13.2962,4.59970,2469.867,2019-9-19T15:11:50Z
2019-09-19T13:14:30Z,42.805,6.029,13.2966,4.59968,2469.853,2019-9-19T15:14:53Z
2019-09-19T13:17:33Z,42.805,6.029,13.2967,4.59967,2469.806,2019-9-19T15:17:56Z
2019-09-19T13:20:36Z,42.805,6.029,13.2961,4.59966,2469.83,2019-9-19T15:21:00Z
2019-09-19T13:23:39Z,42.805,6.029,13.2958,4.59967,2469.867,2019-9-19T15:24:03Z
2019-09-19T13:26:43Z,42.805,6.029,13.2964,4.59964,2469.83,2019-9-19T15:27:06Z
2019-09-19T13:29:46Z,42.805,6.029,13.2959,4.59967,2469.797,2019-9-19T15:30:09Z
2019-09-19T13:32:49Z,42.805,6.029,13.2963,4.59965,2469.83,2019-9-19T15:33:12Z
2019-09-19T13:35:52Z,42.805,6.029,13.2963,4.59971,2469.844,2019-9-19T15:36:16Z
2019-09-19T13:38:56Z,42.805,6.029,13.2960,4.59971,2469.83,2019-9-19T15:39:19Z
2019-09-19T13:41:59Z,42.805,6.029,13.2958,4.59968,2469.83,2019-9-19T15:42:23Z
2019-09-19T13:45:02Z,42.805,6.029,13.2957,4.59967,2469.853,2019-9-19T15:45:26Z
2019-09-19T13:48:06Z,42.805,6.029,13.2961,4.59969,2469.83,2019-9-19T15:48:29Z
2019-09-19T13:51:09Z,42.805,6.029,13.2958,4.59964,2469.83,2019-9-19T15:51:32Z
2019-09-19T13:54:12Z,42.805,6.029,13.2960,4.59964,2469.83,2019-9-19T15:54:35Z
2019-09-19T13:57:16Z,42.805,6.029,13.2962,4.59962,2469.844,2019-9-19T15:57:39Z
2019-09-19T14:00:19Z,42.805,6.029,13.2959,4.59965,2469.806,2019-9-19T16:00:42Z
2019-09-19T14:03:22Z,42.805,6.029,13.2964,4.59971,2469.806,2019-9-19T16:03:46Z
2019-09-19T14:06:25Z,42.805,6.029,13.2959,4.59974,2469.844,2019-9-19T16:06:49Z
2019-09-19T14:09:29Z,42.805,6.029,13.2959,4.59970,2469.83,2019-9-19T16:09:52Z
2019-09-19T14:12:32Z,42.805,6.029,13.2961,4.59973,2469.844,2019-9-19T16:12:55Z
2019-09-19T14:15:35Z,42.805,6.029,13.2965,4.59975,2469.821,2019-9-19T16:15:58Z
2019-09-19T14:18:38Z,42.805,6.029,13.2958,4.59978,2469.806,2019-9-19T16:19:01Z
2019-09-19T14:21:41Z,42.805,6.029,13.2962,4.59976,2469.83,2019-9-19T16:22:05Z
2019-09-19T14:24:45Z,42.805,6.029,13.2962,4.59968,2469.83,2019-9-19T16:25:08Z
2019-09-19T14:27:48Z,42.805,6.029,13.2961,4.59971,2469.806,2019-9-19T16:28:11Z
2019-09-19T14:30:51Z,42.805,6.029,13.2961,4.59971,2469.83,2019-9-19T16:31:15Z
2019-09-19T14:33:54Z,42.805,6.029,13.2959,4.59971,2469.783,2019-9-19T16:34:18Z
2019-09-19T14:36:57Z,42.805,6.029,13.2962,4.59972,2469.83,2019-9-19T16:37:21Z
2019-09-19T14:40:01Z,42.805,6.029,13.2961,4.59968,2469.83,2019-9-19T16:40:24Z
2019-09-19T14:43:04Z,42.805,6.029,13.2960,4.59983,2469.806,2019-9-19T16:43:27Z
2019-09-19T14:46:07Z,42.805,6.029,13.2963,4.59966,2469.821,2019-9-19T16:46:30Z
2019-09-19T14:49:10Z,42.805,6.029,13.2963,4.59981,2469.83,2019-9-19T16:49:34Z
2019-09-19T14:52:14Z,42.805,6.029,13.2959,4.59979,2469.806,2019-9-19T16:52:37Z
2019-09-19T14:55:17Z,42.805,6.029,13.2964,4.59972,2469.783,2019-9-19T16:55:40Z
2019-09-19T14:58:20Z,42.805,6.029,13.2955,4.59975,2469.83,2019-9-19T16:58:44Z
2019-09-19T15:01:24Z,42.805,6.029,13.2961,4.59976,2469.806,2019-9-19T17:01:47Z
2019-09-19T15:04:27Z,42.805,6.029,13.2964,4.59971,2469.773,2019-9-19T17:04:50Z
2019-09-19T15:07:30Z,42.805,6.029,13.2959,4.59976,2469.83,2019-9-19T17:07:53Z
2019-09-19T15:10:33Z,42.805,6.029,13.2964,4.59985,2469.821,2019-9-19T17:10:57Z
2019-09-19T15:13:36Z,42.805,6.029,13.2962,4.59972,2469.797,2019-9-19T17:14:00Z